Temp
67 67 68 70 70 71 69 67 65 65 65 65 66 66 66 67 67 68 70 71 71 71 71 72 72 72 73 73 73 74 74 73 73 72 72 72 72 72 71 70 69 71
67 67 67 68 69 69 68 66 65 64 65 65 67 68 67 66 65 67 69 70 71 72 72 72 72 73 73 73 73 72 73 72 71 74 71 71 72 72 71 70 68 69
66 66 66 66 66 65 65 65 64 64 65 66 68 69 68 67 66 68 70 72 73 73 72 72 72 73 73 73 73 72 73 72 72 72 71 72 72 72 70 69 69 69
66 66 65 65 65 65 65 64 62 63 65 65 66 67 68 67 68 68 70 71 72 72 73 73 73 73 74 73 72 72 72 72 73 72 70 71 72 72 70 70 69 68
67 67 66 65 65 67 66 63 62 63 65 66 67 67 66 66 67 70 71 71 72 72 72 73 73 72 72 72 72 72 72 71 71 70 70 71 71 71 71 71 70 69
67 68 67 67 67 65 64 64 64 64 66 67 67 66 65 67 68 69 70 70 70 71 72 72 72 72 73 73 71 72 72 71 70 69 70 70 70 70 72 71 71 71
64 65 66 66 65 65 65 66 65 66 67 68 69 67 67 67 68 69 70 71 71 71 72 71 71 71 73 73 73 72 71 71 70 70 71 71 70 69 73 72 72 73
62 64 65 65 64 64 64 66 66 66 67 68 67 68 69 69 70 70 71 71 72 72 72 73 72 72 71 73 72 71 71 72 71 68 70 71 70 71 71 72 71 72
62 64 64 64 63 64 64 65 66 66 68 67 68 69 69 70 70 71 70 71 70 71 72 72 72 71 70 71 71 72 72 71 71 71 71 71 70 71 73 73 71 71
61 63 63 63 63 63 64 66 67 67 68 68 70 69 69 69 70 71 67 67 69 71 71 71 71 70 70 72 72 72 73 72 72 71 72 72 72 72 73 72 72 71
57 60 61 62 62 63 64 66 67 67 67 68 69 69 70 69 69 67 66 66 67 68 70 71 71 71 71 71 72 72 73 73 72 72 72 72 72 71 71 71 71 71
56 57 59 61 62 63 63 64 65 66 67 66 68 69 69 69 68 67 66 65 66 67 68 71 73 72 72 72 72 72 72 72 72 72 72 73 72 71 70 70 70 72
56 57 58 60 62 63 64 65 66 66 66 66 68 69 69 68 68 68 67 65 64 65 67 70 72 73 72 72 72 72 72 72 71 71 71 71 72 72 71 71 71 73
55 56 57 58 61 63 64 65 66 66 66 66 67 68 69 70 70 68 68 65 65 65 69 72 72 71 71 72 72 72 71 71 71 70 71 70 70 71 71 71 72 72
56 57 58 59 60 61 63 63 64 65 65 65 65 66 67 69 70 69 67 66 66 67 70 71 71 70 70 70 70 71 70 69 71 71 70 70 70 71 71 71 72 72
56 57 58 59 60 60 62 63 64 64 65 65 64 64 67 68 68 69 68 67 67 69 70 69 69 70 63 57 61 71 70 69 68 69 70 70 69 69 69 70 70 70
56 56 57 57 58 59 61 62 63 63 63 64 64 64 63 65 66 66 66 67 67 68 68 68 67 67 52 47 50 54 68 69 68 67 67 68 69 69 68 68 68 70
55 56 56 56 57 58 59 61 63 62 62 62 62 61 61 63 63 63 63 63 64 66 67 67 67 54 46 46 47 48 55 69 69 68 67 69 70 70 69 68 67 67
54 54 55 55 55 56 57 58 59 60 61 59 60 62 61 60 61 62 62 61 60 60 63 63 63 43 42 42 44 45 48 60 72 70 69 69 70 69 68 67 66 65
52 53 53 54 55 55 54 53 53 52 54 57 58 59 59 58 57 58 57 56 56 57 58 59 58 45 42 42 42 44 45 56 71 69 68 68 67 67 66 66 65 65
51 52 52 53 54 53 52 50 49 49 50 49 51 52 52 52 52 51 51 51 52 53 55 55 50 40 41 41 42 43 46 55 67 66 66 66 65 65 65 66 66 65
51 51 51 52 52 52 51 48 47 47 46 47 47 47 48 49 48 49 49 49 49 51 53 53 49 39 40 41 42 44 48 64 65 64 64 64 64 64 64 66 66 65
51 50 50 51 52 51 50 48 46 46 45 46 45 45 45 45 46 46 47 47 47 48 50 51 50 43 40 42 43 45 54 63 63 64 63 62 61 62 63 63 63 64
51 51 50 51 51 50 49 49 48 47 46 47 45 44 44 44 45 44 45 45 45 46 47 48 48 44 41 43 44 47 55 62 63 63 61 60 58 59 61 61 58 53
51 51 50 51 50 50 50 49 48 47 47 47 46 45 44 44 44 43 43 43 44 45 47 47 46 45 41 40 42 46 56 61 61 61 59 58 57 55 57 57 55 51
49 49 50 51 51 50 50 50 50 48 47 47 47 46 44 44 43 42 42 42 43 43 43 44 43 43 42 39 41 42 47 58 58 57 55 55 56 56 56 55 53 53
MSLP
1016.17 1016.37 1016.25 1015.89 1015.77 1015.93 1016.25 1016.69 1017.13 1017.45 1017.65 1017.61 1017.33 1017.17 1017.05 1017.21 1017.57 1017.73 1017.61 1017.49 1017.49 1017.57 1017.69 1017.73 1017.81 1017.97 1018.09 1018.25 1018.45 1018.61 1018.77 1019.01 1019.21 1019.41 1019.65 1019.81 1019.97 1020.17 1020.41 1020.73 1020.85 1020.93
1016.13 1016.25 1016.37 1016.17 1016.05 1016.09 1016.29 1016.65 1017.05 1017.37 1017.49 1017.65 1017.45 1017.05 1016.97 1016.93 1017.01 1017.09 1017.33 1017.37 1017.33 1017.41 1017.45 1017.57 1017.69 1017.77 1017.93 1018.05 1018.25 1018.53 1018.69 1018.93 1019.21 1019.17 1019.49 1019.69 1019.77 1019.89 1020.21 1020.41 1020.89 1021.01
1016.01 1016.09 1016.25 1016.41 1016.33 1016.33 1016.21 1015.97 1015.85 1015.89 1016.29 1016.77 1016.97 1016.85 1016.69 1016.73 1016.89 1016.85 1016.85 1016.93 1016.97 1017.09 1017.29 1017.37 1017.49 1017.57 1017.73 1017.89 1018.09 1018.33 1018.53 1018.77 1019.01 1019.21 1019.37 1019.49 1019.57 1019.77 1020.05 1020.41 1020.65 1020.81
1015.89 1015.89 1016.05 1016.21 1016.17 1015.81 1015.45 1015.53 1015.65 1015.89 1016.13 1016.37 1016.45 1016.41 1016.41 1016.37 1016.49 1016.61 1016.69 1016.69 1016.77 1016.85 1016.97 1017.09 1017.25 1017.41 1017.53 1017.73 1018.01 1018.25 1018.37 1018.53 1018.65 1018.93 1019.25 1019.33 1019.45 1019.69 1020.05 1020.25 1020.41 1020.81
1015.65 1015.65 1015.73 1015.85 1015.89 1015.77 1015.89 1015.81 1015.49 1015.57 1015.93 1016.05 1016.09 1016.33 1016.61 1016.69 1016.65 1016.49 1016.45 1016.49 1016.49 1016.65 1016.81 1016.93 1017.09 1017.29 1017.49 1017.65 1017.85 1018.09 1018.29 1018.45 1018.61 1018.85 1019.09 1019.25 1019.29 1019.57 1019.65 1019.93 1020.25 1020.49
1015.49 1015.37 1015.41 1015.41 1015.45 1015.57 1015.65 1015.73 1015.57 1015.53 1015.61 1015.81 1015.97 1015.85 1015.73 1016.01 1016.29 1016.29 1016.21 1016.21 1016.21 1016.33 1016.57 1016.77 1016.97 1017.09 1017.29 1017.45 1017.77 1017.93 1018.09 1018.37 1018.57 1018.77 1018.97 1019.17 1019.33 1019.37 1019.45 1019.61 1019.85 1020.05
1015.65 1015.45 1015.41 1015.37 1015.33 1015.21 1015.25 1015.17 1015.25 1015.29 1015.21 1015.33 1015.57 1015.49 1015.41 1015.61 1015.73 1015.77 1015.81 1015.81 1015.89 1016.05 1016.21 1016.45 1016.69 1016.93 1017.05 1017.25 1017.45 1017.69 1017.89 1018.09 1018.37 1018.69 1018.77 1018.81 1019.05 1019.21 1019.13 1019.29 1019.45 1019.57
1015.89 1015.57 1015.45 1015.29 1015.17 1015.05 1015.13 1015.21 1015.29 1015.25 1015.13 1015.13 1015.37 1015.37 1015.29 1015.37 1015.33 1015.41 1015.41 1015.49 1015.61 1015.73 1015.85 1016.05 1016.37 1016.65 1016.93 1017.05 1017.25 1017.49 1017.69 1017.81 1018.13 1018.73 1018.61 1018.49 1018.69 1018.81 1018.93 1019.05 1019.25 1019.37
1015.69 1015.45 1015.37 1015.21 1015.05 1014.97 1014.97 1014.97 1014.97 1014.93 1014.85 1014.89 1014.89 1015.05 1015.17 1015.21 1015.17 1015.17 1015.25 1015.25 1015.53 1015.57 1015.73 1015.97 1016.17 1016.49 1016.73 1016.89 1017.05 1017.21 1017.41 1017.65 1017.81 1017.93 1018.09 1018.33 1018.53 1018.57 1018.65 1018.77 1019.09 1019.25
1015.77 1015.45 1015.29 1015.05 1014.97 1014.85 1014.81 1014.69 1014.65 1014.65 1014.61 1014.57 1014.41 1014.57 1014.85 1015.01 1015.09 1015.17 1015.53 1015.77 1015.69 1015.49 1015.69 1015.89 1016.09 1016.33 1016.57 1016.65 1016.73 1016.89 1017.05 1017.29 1017.49 1017.65 1017.89 1017.97 1018.17 1018.29 1018.37 1018.61 1018.85 1019.13
1016.17 1015.57 1015.25 1015.13 1015.05 1014.89 1014.77 1014.65 1014.57 1014.57 1014.57 1014.57 1014.45 1014.45 1014.49 1014.57 1014.81 1014.93 1015.13 1015.57 1016.17 1016.13 1015.69 1015.81 1015.97 1016.17 1016.37 1016.49 1016.57 1016.61 1016.73 1016.93 1017.17 1017.37 1017.53 1017.69 1017.85 1018.05 1018.21 1018.37 1018.57 1018.81
1016.57 1016.13 1015.69 1015.25 1015.05 1014.93 1014.81 1014.65 1014.53 1014.49 1014.49 1014.49 1014.45 1014.29 1014.29 1014.41 1014.57 1014.85 1015.13 1015.33 1015.65 1016.37 1016.53 1015.89 1015.77 1015.93 1016.13 1016.25 1016.37 1016.49 1016.61 1016.73 1016.93 1017.17 1017.33 1017.49 1017.65 1017.89 1018.09 1018.25 1018.41 1018.49
1016.93 1016.61 1016.29 1015.77 1015.21 1014.93 1014.77 1014.61 1014.45 1014.41 1014.49 1014.45 1014.29 1014.17 1014.17 1014.29 1014.41 1014.61 1014.93 1015.17 1015.21 1015.33 1015.97 1015.89 1015.57 1015.73 1015.93 1016.09 1016.21 1016.37 1016.49 1016.65 1016.89 1017.09 1017.25 1017.41 1017.53 1017.65 1017.81 1018.01 1018.21 1018.21
1017.17 1016.81 1016.45 1016.01 1015.49 1015.01 1014.69 1014.49 1014.41 1014.37 1014.33 1014.33 1014.29 1014.17 1014.09 1014.09 1014.25 1014.49 1014.77 1015.05 1015.09 1015.01 1015.13 1015.29 1015.33 1015.57 1015.77 1015.93 1016.05 1016.21 1016.37 1016.53 1016.73 1016.97 1017.17 1017.37 1017.53 1017.61 1017.69 1017.85 1017.97 1018.01
1017.25 1016.89 1016.49 1016.05 1015.61 1015.09 1014.65 1014.41 1014.25 1014.25 1014.21 1014.21 1014.25 1014.21 1014.09 1014.01 1014.05 1014.21 1014.53 1014.85 1014.93 1014.85 1014.81 1014.97 1015.17 1015.33 1015.57 1015.77 1015.97 1016.13 1016.25 1016.49 1016.57 1016.73 1016.97 1017.21 1017.37 1017.49 1017.61 1017.69 1017.77 1017.89
1017.37 1017.01 1016.53 1016.05 1015.61 1015.25 1014.81 1014.41 1014.17 1014.09 1014.09 1014.05 1014.09 1014.13 1014.05 1014.01 1014.05 1013.97 1014.09 1014.37 1014.53 1014.53 1014.53 1014.81 1014.97 1015.09 1015.33 1015.57 1015.65 1015.81 1016.13 1016.33 1016.57 1016.69 1016.77 1016.93 1017.21 1017.45 1017.65 1017.69 1017.77 1017.89
1017.61 1017.17 1016.73 1016.37 1015.93 1015.41 1014.93 1014.49 1014.17 1014.01 1013.97 1013.89 1013.93 1014.01 1014.09 1014.05 1014.05 1014.09 1014.09 1014.05 1014.21 1014.21 1014.37 1014.57 1014.77 1014.93 1015.33 1015.61 1015.69 1015.81 1015.89 1016.13 1016.45 1016.65 1016.77 1016.89 1017.01 1017.25 1017.49 1017.77 1017.85 1017.93
1017.85 1017.45 1017.05 1016.69 1016.33 1015.89 1015.33 1014.65 1014.17 1014.05 1014.01 1013.93 1013.97 1013.93 1013.93 1013.97 1014.13 1014.33 1014.33 1014.37 1014.29 1014.21 1014.21 1014.37 1014.61 1014.97 1015.29 1015.49 1015.65 1015.85 1015.93 1015.97 1016.21 1016.49 1016.65 1016.69 1016.81 1017.01 1017.29 1017.53 1017.77 1018.01
1018.21 1017.77 1017.41 1017.05 1016.69 1016.25 1015.73 1015.17 1014.57 1014.17 1014.01 1014.01 1013.93 1013.77 1014.01 1014.05 1013.97 1014.05 1014.17 1014.45 1014.69 1014.69 1014.69 1014.65 1014.81 1015.37 1015.25 1015.45 1015.61 1015.77 1015.97 1015.93 1015.93 1016.17 1016.37 1016.53 1016.69 1016.93 1017.21 1017.49 1017.73 1018.01
1018.73 1018.25 1017.89 1017.49 1017.01 1016.69 1016.29 1015.97 1015.69 1015.45 1015.01 1014.49 1014.01 1013.89 1014.09 1014.25 1014.37 1014.65 1014.97 1015.05 1014.93 1014.81 1015.09 1015.09 1015.29 1015.53 1015.29 1015.45 1015.69 1015.85 1015.97 1015.97 1015.85 1016.13 1016.33 1016.53 1016.77 1017.01 1017.29 1017.53 1017.73 1017.93
1019.09 1018.69 1018.33 1017.97 1017.53 1017.17 1016.89 1016.65 1016.53 1016.29 1016.09 1015.93 1015.49 1015.13 1014.93 1015.05 1015.25 1015.37 1015.61 1015.69 1015.65 1015.37 1015.37 1015.33 1015.81 1015.81 1015.41 1015.53 1015.81 1015.97 1016.01 1016.01 1016.09 1016.37 1016.57 1016.81 1017.01 1017.21 1017.37 1017.49 1017.69 1017.89
1019.49 1019.13 1018.69 1018.33 1018.01 1017.65 1017.41 1017.33 1017.17 1017.05 1016.97 1016.85 1016.61 1016.41 1016.29 1016.05 1016.09 1016.13 1016.05 1015.97 1016.05 1016.05 1016.17 1016.05 1016.21 1016.09 1015.61 1015.65 1015.93 1016.01 1015.93 1016.05 1016.29 1016.57 1016.81 1017.01 1017.29 1017.49 1017.57 1017.69 1017.81 1017.97
1019.85 1019.57 1019.21 1018.77 1018.49 1018.21 1018.01 1017.97 1017.81 1017.61 1017.45 1017.29 1017.25 1017.29 1017.33 1017.29 1017.01 1016.93 1016.77 1016.61 1016.53 1016.45 1016.85 1016.77 1016.61 1016.73 1016.25 1015.89 1016.13 1015.97 1015.85 1016.13 1016.49 1016.69 1017.01 1017.29 1017.61 1017.81 1017.89 1018.05 1018.17 1018.25
1020.13 1019.93 1019.65 1019.33 1019.01 1018.89 1018.73 1018.57 1018.41 1018.25 1018.13 1017.97 1017.85 1017.69 1017.77 1018.13 1018.09 1017.45 1017.29 1017.29 1017.29 1017.33 1017.45 1017.41 1017.37 1017.17 1016.93 1016.85 1016.61 1016.33 1015.89 1016.05 1016.37 1016.73 1017.29 1017.69 1018.09 1018.25 1018.21 1018.45 1018.85 1018.97
1020.53 1020.25 1020.09 1019.77 1019.57 1019.41 1019.25 1019.09 1018.97 1018.85 1018.77 1018.61 1018.53 1018.49 1018.41 1018.33 1018.73 1018.09 1017.73 1017.97 1018.21 1018.21 1018.09 1017.97 1017.89 1017.69 1017.41 1017.37 1017.41 1016.97 1016.45 1016.25 1016.49 1016.93 1017.49 1017.97 1018.29 1018.69 1018.77 1018.93 1019.45 1019.65
1021.21 1020.85 1020.49 1020.21 1020.05 1020.01 1019.81 1019.65 1019.45 1019.25 1019.21 1019.13 1019.13 1019.05 1019.05 1018.93 1019.25 1018.49 1017.93 1018.65 1019.09 1018.81 1018.81 1018.69 1018.45 1018.49 1018.37 1017.93 1017.89 1017.77 1017.37 1016.89 1016.85 1017.17 1017.77 1018.21 1018.45 1018.49 1018.69 1019.33 1019.69 1020.01
Wind_Speed
7 7 7 6 7 7 6 5 2 3 3 6 8 7 8 4 3 5 7 8 9 9 10 9 10 10 9 8 8 8 8 10 9 9 10 11 10 10 9 10 10 8
8 8 7 6 4 4 2 1 4 7 7 7 10 8 6 7 9 9 10 10 10 10 9 9 9 10 9 8 9 8 8 8 10 8 10 11 9 10 9 10 9 8
8 7 7 6 4 1 4 9 9 9 9 10 10 9 9 11 8 9 10 11 10 10 10 9 10 9 9 9 9 9 8 9 9 8 8 10 9 8 7 8 8 11
7 6 5 4 4 7 7 8 7 5 5 7 10 8 8 8 8 10 10 11 10 10 10 10 9 9 9 9 9 8 8 7 8 8 7 6 8 8 8 9 9 7
7 7 4 6 6 8 4 6 6 4 8 11 9 4 2 5 8 10 10 10 9 8 9 10 10 9 9 8 9 7 8 7 8 7 6 8 8 7 8 8 9 10
7 6 6 7 7 7 7 8 8 10 11 11 8 7 9 9 8 9 8 9 8 8 8 8 8 9 9 8 7 7 8 8 7 7 9 9 8 8 6 8 9 9
9 7 7 7 6 7 9 10 10 10 11 9 8 10 8 9 9 10 9 9 9 9 9 8 8 8 8 8 8 8 8 7 8 9 10 9 9 9 8 7 8 8
9 8 7 7 7 8 8 9 9 9 9 8 8 9 8 9 10 8 8 9 9 10 9 9 9 8 8 9 9 8 8 8 8 10 10 9 8 9 8 6 7 7
9 8 7 7 8 8 9 9 9 8 8 9 9 9 9 8 9 8 8 8 8 8 8 8 9 8 7 8 8 9 9 10 10 10 9 8 8 8 8 7 7 7
10 9 8 8 8 8 9 10 9 8 9 10 10 7 8 7 7 5 1 3 7 8 8 8 8 8 8 9 10 10 9 9 9 9 9 9 8 8 8 7 8 8
11 11 10 9 9 9 11 11 10 9 9 10 9 9 8 8 7 6 7 6 5 6 7 8 8 9 9 9 8 8 9 8 8 8 8 8 8 7 6 7 8 8
10 10 11 11 10 10 10 10 10 10 10 9 9 9 9 8 7 7 6 7 7 4 6 7 8 8 9 9 8 8 7 8 8 8 8 8 8 7 7 8 7 8
11 11 11 10 10 10 10 10 10 10 10 9 9 9 9 9 8 8 8 8 9 11 11 10 9 8 8 8 8 8 8 8 7 7 7 6 7 8 8 8 8 8
11 11 11 11 10 10 11 11 10 9 9 9 9 10 10 10 9 9 11 9 9 9 11 9 8 7 7 7 7 7 7 8 7 7 7 6 6 7 8 8 9 8
12 11 10 11 11 11 10 10 10 9 8 7 8 10 9 10 10 8 10 11 9 9 10 8 7 7 6 7 7 7 6 6 7 8 7 7 7 7 6 7 7 6
12 11 12 12 12 11 11 10 10 9 8 8 8 9 10 10 10 10 10 10 10 10 9 7 6 5 7 11 9 7 7 6 5 6 8 7 7 7 6 6 6 5
12 12 12 12 13 12 11 11 10 9 9 9 8 8 8 9 10 8 8 8 9 9 9 7 5 5 11 12 12 10 8 6 7 6 6 7 7 7 7 7 5 5
13 13 13 13 13 13 13 11 9 8 9 8 6 8 6 6 5 4 5 6 7 5 7 6 6 6 11 11 11 11 8 7 7 7 7 7 7 7 6 6 6 5
14 14 13 13 13 12 12 11 10 9 8 5 7 8 4 7 8 7 6 4 4 3 2 4 5 6 9 8 8 10 11 8 7 7 8 7 6 6 6 6 6 6
14 13 13 13 12 11 11 11 11 10 9 7 3 3 2 1 3 3 4 1 2 4 3 3 4 4 8 8 8 9 10 7 6 6 5 6 6 6 6 6 6 6
15 14 13 13 12 11 10 10 10 10 10 9 8 7 6 5 5 5 5 5 4 2 3 4 3 3 7 9 9 10 10 6 6 6 6 6 5 5 5 6 7 6
15 15 15 14 13 13 12 12 11 10 9 8 9 9 8 7 6 6 6 6 6 7 5 4 6 6 8 10 11 11 12 6 7 7 6 6 6 6 5 6 6 7
14 15 15 15 14 14 13 13 12 12 11 9 10 10 10 10 9 7 6 7 9 8 6 6 7 9 6 11 11 13 10 7 7 7 6 7 6 6 5 5 5 6
13 14 14 14 14 14 13 12 11 10 10 9 10 9 9 8 6 7 9 10 10 10 8 6 7 11 13 7 5 4 7 9 7 7 7 7 6 5 5 6 7 8
12 13 13 14 14 13 12 12 12 12 11 10 10 10 8 7 5 7 11 12 9 8 14 11 10 12 16 13 11 5 3 6 7 8 8 7 6 6 5 6 6 8
10 12 13 13 13 13 12 12 10 11 12 12 11 10 9 8 6 8 14 12 10 9 10 10 11 12 15 17 15 13 9 3 5 7 8 8 6 6 9 7 7 6
Wind_Direction
266 276 270 248 232 229 225 218 148 281 261 253 251 238 226 220 241 242 237 222 215 212 211 212 208 205 205 200 198 204 203 205 205 202 203 204 210 207 206 197 199 208
271 270 271 270 263 256 244 109 143 198 228 222 236 228 217 200 197 199 217 223 215 214 213 210 207 204 201 201 200 201 202 199 201 206 204 208 212 210 211 204 208 225
289 288 284 270 276 319 199 209 204 200 205 223 233 224 207 212 205 206 214 218 217 213 208 206 205 203 200 200 200 203 202 198 201 199 196 207 213 213 206 207 218 209
285 276 271 262 209 207 212 208 205 203 218 228 235 225 213 213 208 209 212 212 210 206 204 205 205 202 201 199 197 201 200 197 197 189 191 204 214 208 201 214 213 204
265 265 249 227 220 246 228 223 237 215 225 235 237 230 217 232 226 217 210 204 202 194 197 203 206 203 199 195 193 194 199 201 197 187 196 211 206 200 202 204 197 202
268 250 251 249 241 246 246 232 221 220 226 232 221 198 205 206 208 209 195 191 190 190 186 189 191 196 199 194 188 198 193 198 197 187 204 204 201 209 200 197 200 200
312 301 271 254 244 233 233 242 238 226 225 225 212 217 206 204 203 203 194 193 188 187 186 183 186 186 193 199 197 194 189 186 180 202 205 197 192 199 202 191 195 197
323 320 290 264 243 241 242 246 245 245 237 224 217 222 215 215 213 204 197 189 190 188 184 181 181 185 183 197 196 190 187 198 190 197 206 189 185 187 183 182 185 195
324 325 313 290 274 267 262 254 246 242 240 229 223 220 213 216 214 208 198 189 189 189 179 176 179 179 182 189 192 191 188 193 195 193 191 185 188 188 185 178 181 186
325 324 316 304 286 283 270 262 256 249 241 236 229 206 201 206 217 208 231 220 211 189 181 176 178 178 184 193 194 192 190 184 184 188 192 190 189 188 186 181 184 185
337 330 324 313 301 289 286 287 278 264 255 248 238 225 211 194 183 157 173 188 231 235 192 182 183 183 186 191 190 190 190 185 186 192 195 194 186 181 175 186 187 189
333 332 329 320 308 300 291 288 281 266 255 250 246 235 222 212 186 181 180 175 174 233 252 205 189 188 191 189 188 186 189 188 190 193 194 191 185 183 180 191 205 195
335 330 327 319 310 303 296 286 278 270 263 254 245 237 225 214 195 183 181 179 181 182 213 218 194 189 189 183 183 183 186 186 188 192 190 185 183 183 190 193 209 199
335 330 325 321 315 305 297 291 287 282 271 264 255 245 236 226 208 192 195 190 198 195 204 207 188 179 180 182 183 181 181 186 186 185 184 179 177 181 182 189 198 197
337 332 326 324 321 315 303 294 293 292 283 265 254 251 244 237 225 198 191 197 200 203 201 193 187 179 177 177 179 180 178 180 185 183 177 175 177 179 178 185 190 194
341 337 334 331 332 328 317 305 297 294 286 269 253 246 245 239 228 214 200 196 197 196 190 178 183 179 177 180 174 173 179 177 169 175 177 174 171 168 169 176 178 174
349 346 342 341 338 332 327 314 302 293 285 276 262 243 237 234 223 207 201 200 202 190 178 176 172 178 171 176 179 178 178 174 170 168 170 171 171 170 169 167 162 157
354 351 351 349 345 340 333 320 306 296 290 286 263 239 218 218 200 190 210 208 205 188 174 165 167 152 166 175 176 179 189 179 173 171 174 174 173 170 163 165 160 150
354 355 352 353 353 350 350 352 344 326 297 239 239 248 202 195 202 191 188 174 145 162 189 141 136 141 152 158 166 175 185 189 182 178 175 169 161 158 155 158 155 148
359 358 359 356 355 358 3 9 8 7 4 345 288 240 171 63 45 55 35 132 170 140 147 134 109 129 141 146 158 165 164 181 166 157 147 142 146 144 147 151 153 152
2 1 3 3 1 3 12 18 13 9 12 9 13 26 42 51 44 56 56 33 8 69 116 78 34 12 134 135 142 150 137 134 126 124 127 123 120 127 135 143 143 142
6 3 5 6 8 12 17 20 19 16 19 12 27 30 34 47 45 46 47 45 36 33 12 34 38 24 122 128 140 142 126 127 124 121 123 119 114 117 124 128 133 134
12 9 9 11 11 15 19 23 23 24 24 25 45 42 36 36 43 47 38 45 47 46 36 31 38 20 81 126 146 144 130 121 122 121 118 114 108 111 111 109 114 132
21 16 15 16 18 18 22 27 30 31 32 33 49 56 52 27 2 46 47 41 41 44 38 39 37 27 32 50 137 163 140 131 130 124 115 111 104 92 104 96 76 57
22 24 22 22 23 25 27 32 37 40 37 38 41 46 46 52 17 51 61 48 30 37 43 44 41 31 29 30 17 19 122 121 124 123 120 122 122 106 90 101 81 51
11 21 28 28 29 30 31 33 35 42 44 44 47 50 47 44 33 49 67 53 34 33 41 36 45 38 29 33 29 18 11 88 112 121 127 126 129 134 127 104 90 88